WB5OMR-9 Weather Reports


Display with metric or nautical units.
time (UTC)temp
F
wind
direction
speed
MPH
gust
MPH
rain 1hr
in
rain 24hr
in
rain mn
in
humidity
%
barometer
mb
20260902103825 79 135 0.0 0.0 0.00 0.00 0.00 72 1015.2
20260902102824 79 135 0.0 0.0 0.00 0.00 0.00 72 1015.2
20260902101823 79 135 0.0 0.0 0.00 0.00 0.00 72 1015.2
20260902100822 79 135 0.0 0.0 0.00 0.00 0.00 72 1014.9
20260902095821 80 135 0.0 0.0 0.00 0.00 0.00 72 1015.2
20260902094819 80 135 0.0 0.0 0.00 0.00 0.00 71 1014.9
20260902093818 80 135 0.0 0.0 0.00 0.00 0.00 71 1015.2
20260902092817 80 135 0.0 0.0 0.00 0.00 0.00 70 1015.2
20260902091816 80 135 0.0 0.0 0.00 0.00 0.00 69 1014.9
20260902090815 80 135 0.0 0.0 0.00 0.00 0.00 69 1014.9
20260902085814 81 135 0.0 0.0 0.00 0.00 0.00 69 1015.2
20260902084813 81 135 0.0 0.0 0.00 0.00 0.00 69 1015.2
20260902083729 81 135 0.0 0.0 0.00 0.00 0.00 69 1015.2
20260902082728 81 135 0.0 0.0 0.00 0.00 0.00 70 1015.2
20260902081727 81 135 0.0 0.0 0.00 0.00 0.00 70 1014.9
20260902080726 81 112 0.0 0.0 0.00 0.00 0.00 69 1014.9
20260902075726 81 157 0.0 0.0 0.00 0.00 0.00 68 1015.2
20260902074724 81 135 0.0 0.0 0.00 0.00 0.00 69 1015.2
20260902073723 82 157 0.0 0.0 0.00 0.00 0.00 68 1015.2
20260902072640 82 112 0.0 0.0 0.00 0.00 0.00 67 1015.2
20260902071639 82 157 0.0 0.0 0.00 0.00 0.00 66 1015.2
20260902070639 82 157 0.0 0.0 0.00 0.00 0.00 66 1015.2
20260902065637 83 157 0.0 0.0 0.00 0.00 0.00 65 1014.9
20260902064636 83 135 0.0 0.0 0.00 0.00 0.00 63 1014.9
20260902063553 83 135 0.0 0.0 0.00 0.00 0.00 62 1015.2
20260902062510 84 157 0.0 0.0 0.00 0.00 0.00 61 1015.2
20260902061426 84 112 0.0 0.0 0.00 0.00 0.00 61 1015.2
20260902060426 84 180 0.0 0.0 0.00 0.00 0.00 60 1014.9
20260902055342 85 157 0.0 0.0 0.00 0.00 0.00 59 1014.9
20260902054341 85 135 0.0 0.0 0.00 0.00 0.00 58 1015.2
20260902053340 85 157 0.0 0.0 0.00 0.00 0.00 58 1015.2
20260902052340 86 112 0.0 0.0 0.00 0.00 0.00 58 1015.2
20260902051338 86 135 0.0 0.0 0.00 0.00 0.00 56 1014.9
20260902050337 86 112 0.0 0.0 0.00 0.00 0.00 55 1014.9
20260902045336 86 135 0.0 0.0 0.00 0.00 0.00 54 1014.9
20260902044335 87 135 0.0 0.0 0.00 0.00 0.00 53 1014.9
20260902043334 87 112 0.0 0.0 0.00 0.00 0.00 52 1014.9
20260902042251 87 112 0.0 0.0 0.00 0.00 0.00 51 1014.6
20260902041207 87 157 0.0 0.0 0.00 0.00 0.00 50 1014.6
20260902040206 87 67 0.0 0.0 0.00 0.00 0.00 48 1014.6
20260902035205 87 90 0.0 0.0 0.00 0.00 0.00 47 1014.2
20260902034205 88 135 0.0 0.0 0.00 0.00 0.00 47 1014.2
20260902033204 88 90 0.0 0.0 0.00 0.00 0.00 46 1013.9
20260902032202 88 67 0.0 0.0 0.00 0.00 0.00 46 1013.9
20260902031119 88 90 0.0 0.0 0.00 0.00 0.00 46 1013.5
20260902030036 88 90 0.0 0.0 0.00 0.00 0.00 45 1013.5
20260902025035 89 112 0.0 0.0 0.00 0.00 0.00 45 1013.2
20260902023951 89 135 0.0 0.0 0.00 0.00 0.00 44 1012.5
20260902022950 89 135 0.0 0.0 0.00 0.00 0.00 44 1012.9
20260902021949 90 135 0.0 0.0 0.00 0.00 0.00 44 1013.5
20260902020947 91 135 0.0 0.0 0.00 0.00 0.00 43 1014.2
20260902015945 92 135 0.0 0.0 0.00 0.00 0.00 41 1013.2
20260902014902 92 135 0.0 0.0 0.00 0.00 0.00 40 1013.2
20260902013901 93 135 0.0 0.0 0.00 0.00 0.00 39 1013.2
20260902012900 94 135 0.0 0.0 0.00 0.00 0.00 38 1013.2
20260902011859 95 135 0.0 0.0 0.00 0.00 0.00 37 1012.9
20260902010816 96 135 0.0 0.0 0.00 0.00 0.00 37 1012.9
20260902005815 97 135 0.0 0.0 0.00 0.00 0.00 36 1012.9
20260902004730 97 135 0.0 0.0 0.00 0.00 0.00 35 1012.9
20260902003729 98 90 0.0 0.0 0.00 0.00 0.00 34 1012.9
20260902002728 99 112 0.0 0.0 0.00 0.00 0.00 34 1012.9
20260902001727 99 135 0.0 0.0 0.00 0.00 0.00 33 1012.9
20260902000726 100 135 0.0 0.0 0.00 0.00 0.00 32 1012.9
20260901235725 101 135 0.0 0.0 0.00 0.00 0.00 32 1012.9
20260901234724 102 90 0.0 0.0 0.00 0.00 0.00 31 1012.9
20260901233722 102 112 0.0 0.0 0.00 0.00 0.00 31 1012.9
20260901232721 103 112 0.0 0.0 0.00 0.00 0.00 30 1012.9
20260901231720 104 270 0.0 0.0 0.00 0.00 0.00 29 1012.9
20260901230719 105 247 0.0 0.0 0.00 0.00 0.00 29 1012.9
20260901225717 105 112 0.0 0.0 0.00 0.00 0.00 28 1012.9
20260901224716 106 112 0.0 0.0 0.00 0.00 0.00 28 1012.5
20260901223715 106 135 0.0 0.0 0.00 0.00 0.00 28 1012.9
20260901222714 106 112 0.0 0.0 0.00 0.00 0.00 28 1012.9
20260901221713 106 247 0.0 0.0 0.00 0.00 0.00 29 1012.9
20260901220711 107 157 0.0 0.0 0.00 0.00 0.00 28 1012.9
20260901215628 108 157 0.0 0.0 0.00 0.00 0.00 27 1012.9
20260901214627 108 112 0.0 0.0 0.00 0.00 0.00 27 1013.2
20260901213626 108 112 0.0 0.0 0.00 0.00 0.00 28 1013.2
20260901212625 107 112 0.0 0.0 0.00 0.00 0.00 28 1013.2
20260901211624 107 157 0.0 0.0 0.00 0.00 0.00 28 1013.2
20260901210623 107 157 0.0 0.0 0.00 0.00 0.00 28 1013.5
20260901205622 107 157 0.0 0.0 0.00 0.00 0.00 28 1013.5
20260901204621 106 45 0.0 0.0 0.00 0.00 0.00 29 1013.9
20260901203619 106 202 0.0 0.0 0.00 0.00 0.00 29 1013.9
20260901202618 107 180 0.0 0.0 0.00 0.00 0.00 29 1014.2
20260901201617 108 90 0.0 0.0 0.00 0.00 0.00 29 1014.2
20260901200616 107 157 0.0 0.0 0.00 0.00 0.00 29 1014.2
20260901195615 106 225 0.0 0.0 0.00 0.00 0.00 30 1014.6
20260901194613 109 180 0.0 0.0 0.00 0.00 0.00 29 1014.6
20260901193612 110 90 0.0 0.0 0.00 0.00 0.00 29 1014.9
20260901192611 108 67 0.0 0.0 0.00 0.00 0.00 30 1014.9
20260901191610 108 90 0.0 0.0 0.00 0.00 0.00 31 1014.9
20260901190609 107 112 0.0 0.0 0.00 0.00 0.00 32 1015.2
20260901185525 106 90 0.0 0.0 0.00 0.00 0.00 33 1015.6
20260901184524 105 112 0.0 0.0 0.00 0.00 0.00 34 1015.6
20260901183523 106 225 0.0 0.0 0.00 0.00 0.00 32 1015.9
20260901182522 105 135 0.0 0.0 0.00 0.00 0.00 35 1016.6
20260901181521 103 90 0.0 0.0 0.00 0.00 0.00 35 1016.3
20260901180519 103 180 0.0 0.0 0.00 0.00 0.00 36 1015.6
20260901175436 103 157 0.0 0.0 0.00 0.00 0.00 35 1015.2
20260901174352 103 157 0.0 0.0 0.00 0.00 0.00 36 1015.9
20260901173351 102 90 0.0 0.0 0.00 0.00 0.00 38 1016.3
20260901172350 101 135 0.0 0.0 0.00 0.00 0.00 39 1016.3
20260901171348 100 112 0.0 0.0 0.00 0.00 0.00 41 1016.6
20260901170305 99 90 0.0 0.0 0.00 0.00 0.00 44 1016.6
20260901165222 98 112 0.0 0.0 0.00 0.00 0.00 45 1016.6
20260901164221 97 247 0.0 0.0 0.00 0.00 0.00 46 1016.6
20260901163137 95 180 0.0 0.0 0.00 0.00 0.00 49 1016.6
20260901162136 94 112 0.0 0.0 0.00 0.00 0.00 50 1016.6
20260901161136 94 180 0.0 0.0 0.00 0.00 0.00 51 1016.6
20260901160135 93 135 0.0 0.0 0.00 0.00 0.00 53 1016.6
20260901155134 93 135 0.0 0.0 0.00 0.00 0.00 54 1016.6
20260901154132 92 135 0.0 0.0 0.00 0.00 0.00 57 1016.6
20260901153131 91 225 0.0 0.0 0.00 0.00 0.00 57 1016.6
20260901152130 91 225 0.0 0.0 0.00 0.00 0.00 57 1016.6
20260901151129 90 157 0.0 0.0 0.00 0.00 0.00 60 1016.6
20260901150128 90 202 0.0 0.0 0.00 0.00 0.00 62 1016.6
20260901145044 88 247 0.0 0.0 0.00 0.00 0.00 67 1016.6
20260901144042 88 202 0.0 0.0 0.00 0.00 0.00 69 1016.6
20260901143040 86 112 0.0 0.0 0.00 0.00 0.00 72 1016.6
20260901142039 85 90 0.0 0.0 0.00 0.00 0.00 75 1016.6
20260901140956 83 90 0.0 0.0 0.00 0.00 0.00 78 1016.3
20260901135912 82 157 0.0 0.0 0.00 0.00 0.00 80 1016.3
20260901134912 81 157 0.0 0.0 0.00 0.00 0.00 82 1016.3
20260901133828 80 135 0.0 0.0 0.00 0.00 0.00 83 1016.3
20260901132827 79 67 0.0 0.0 0.00 0.00 0.00 84 1016.3
20260901131826 79 90 0.0 0.0 0.00 0.00 0.00 84 1016.3
20260901130825 78 67 0.0 0.0 0.00 0.00 0.00 84 1016.3
20260901125824 78 45 0.0 0.0 0.00 0.00 0.00 83 1016.3
20260901124741 78 112 0.0 0.0 0.00 0.00 0.00 83 1016.3
20260901123740 78 67 0.0 0.0 0.00 0.00 0.00 82 1015.9
20260901122656 78 67 0.0 0.0 0.00 0.00 0.00 82 1015.9
20260901121656 78 45 0.0 0.0 0.00 0.00 0.00 81 1015.9
20260901120655 78 45 0.0 0.0 0.00 0.00 0.00 81 1015.9
20260901115654 78 45 0.0 0.0 0.00 0.00 0.00 80 1015.9
20260901114653 78 45 0.0 0.0 0.00 0.00 0.00 80 1015.9
20260901113651 79 45 0.0 0.0 0.00 0.00 0.00 79 1015.9
20260901112651 79 45 0.0 0.0 0.00 0.00 0.00 79 1015.9
20260901111649 79 90 0.0 0.0 0.00 0.00 0.00 79 1015.9
20260901110648 79 90 0.0 0.0 0.00 0.00 0.00 79 1015.9
20260901105604 79 90 0.0 0.0 0.00 0.00 0.00 79 1015.9
20260901104521 79 90 0.0 0.0 0.00 0.00 0.00 79 1015.9